sat.trackr.live / text

‹ back to catalog

STARLINK-37127

NORAD 68236 · 2026-054E

PAYLOAD ACTIVE UNKNOWN

§ Identity

Operator
Country
US
Launch date
2026-03-17
Launch site
AFETR
Launch vehicle
Mass (kg)
RCS (m²)

Purposes: comms

External: N2YO · Heavens-Above · Gunter

§ Orbital elements

Epoch: 2026-09-20T01:51:14.780160Z

Period
93.85 min
Inclination
53.1579°
Eccentricity
0.0001332
Mean motion
15.34407465 rev/d
Perigee alt
461.8 km
Apogee alt
463.6 km
Semi-major
6,840.8 km
B*
3.5199e-4
RAAN
104.0194°
Arg perigee
90.1610°
Mean anomaly
269.9545°
Rev number
2,889

§ Raw data

STARLINK-371271 68236U 26054E   26263.07725440  .00011537  00000+0  35199-3 0  99962 68236  53.1579 104.0194 0001332  90.1610 269.9545 15.34407465 28898

JSON: /api/v1/satellites/68236 · /tle

For live sub-satellite position, see the globe view (requires WebGL).

§ Visibility from observer

Set your observer location to see the next 7 days of passes ≥ 10°. The values pass through the URL so the page stays shareable.

No JS? Fill the form by hand. The geolocation button needs JavaScript.